Weather History for Glendale Luke AFB, AZ

Change the Weather History Date:

Thursday, November 8, 2012

  Actual Average Record
Temperature  
Mean Temperature 68 °F -  
Max Temperature 82 °F 80 °F 91 °F (1978)
Min Temperature 53 °F 46 °F 27 °F (1918)
Cooling Degree Days 2    
Growing Degree Days 18 (Base 50)    
Moisture  
Dew Point 41 °F    
Average Humidity 38    
Maximum Humidity 77    
Minimum Humidity 15    
Precipitation  
Precipitation 0.00 in - - ()
Sea Level Pressure  
Sea Level Pressure 29.86 in    
Wind  
Wind Speed 8 mph (West)    
Max Wind Speed 13 mph    
Max Gust Speed -    
Visibility 10 miles    
Events Rain    
Averages and records for this station are not official NWS values.
T = Trace of Precipitation, MM = Missing Value Source: NWS Daily Summary

Daily Weather History Graph

Daily Weather History Graph

Search for Another Location

Airport:

Trip Planner

Search our weather history database for the weather conditions in past years. The results will help you decide how hot, cold, wet, or windy it might be!

Date:

Astronomy

Nov. 08, 2012 Rise Set
Actual Time 6:55 AM MST 5:31 PM MST
Civil Twilight 6:29 AM MST 5:57 PM MST
Nautical Twilight 5:59 AM MST 6:26 PM MST
Astronomical Twilight 5:30 AM MST 6:56 PM MST
Moon 1:10 AM MST (11/8) 1:59 PM MST (11/8)
Length of Visible Light 11h 28m
Length of Day
10h 35m
Waning Crescent, 32% of the Moon is Illuminated
Nov 8
Waning Crescent
Nov 13
New
Nov 20
First Quarter
Nov 28
Full
Dec 6
Last Quarter

Hourly Weather History & Observations

Time (MST) Temp. Dew Point Humidity Pressure Visibility Wind Dir Wind Speed Gust Speed Precip Events Conditions
12:58 AM 59.2 °F 33.6 °F 38% 29.86 in 6.0 mi NNW 9.2 mph - N/A   Haze
2:58 AM 57.2 °F 33.6 °F 41% 29.85 in 5.0 mi North 5.8 mph - N/A   Haze
3:38 AM 55.4 °F 33.8 °F 44% 29.87 in 4.0 mi North 6.9 mph - N/A   Haze
3:48 AM 55.4 °F 32.0 °F 41% 29.87 in 5.0 mi North 3.5 mph - N/A   Haze
3:58 AM 55.0 °F 33.1 °F 43% 29.85 in 10.0 mi North 4.6 mph - N/A   Clear
4:58 AM 54.1 °F 34.2 °F 47% 29.85 in 10.0 mi NNW 8.1 mph - N/A   Clear
5:58 AM 54.0 °F 32.4 °F 44% 29.86 in 10.0 mi North 4.6 mph - N/A   Clear
6:58 AM 53.8 °F 32.7 °F 45% 29.88 in 10.0 mi North 5.8 mph - N/A   Clear
7:58 AM 54.7 °F 34.2 °F 46% 29.91 in 10.0 mi North 4.6 mph - N/A   Clear
8:58 AM 65.1 °F 34.2 °F 32% 29.91 in 10.0 mi North 4.6 mph - N/A   Clear
9:58 AM 71.1 °F 32.7 °F 24% 29.92 in 10.0 mi NNE 1.2 mph - N/A   Clear
10:58 AM 74.7 °F 32.9 °F 22% 29.91 in 10.0 mi South 4.6 mph - N/A   Clear
11:58 AM 78.6 °F 33.4 °F 19% 29.87 in 10.0 mi SSE 6.9 mph - N/A   Clear
11:59 AM 78.8 °F 32.0 °F 18% 29.89 in 10.0 mi SSE 6.9 mph - N/A   Light Drizzle
12:07 PM 80.6 °F 32.0 °F 17% 29.89 in 10.0 mi SSE 6.9 mph - N/A   Clear
12:55 PM 82.4 °F 32.0 °F 16% 29.86 in 10.0 mi SSE 9.2 mph - N/A   Clear
1:58 PM 82.6 °F 30.0 °F 15% 29.85 in 10.0 mi SW 12.7 mph - N/A   Scattered Clouds
2:07 PM 82.4 °F 32.0 °F 16% 29.85 in 10.0 mi SSW 10.4 mph - N/A   Light Drizzle
2:16 PM 82.4 °F 30.2 °F 15% 29.85 in 10.0 mi SW 12.7 mph - N/A   Scattered Clouds
2:58 PM 82.8 °F 31.5 °F 16% 29.81 in 10.0 mi SSW 9.2 mph - 0.00 in   Scattered Clouds
2:59 PM 82.4 °F 32.0 °F 16% 29.84 in 10.0 mi SSW 10.4 mph - N/A   Light Drizzle
3:05 PM 82.4 °F 32.0 °F 16% 29.84 in 10.0 mi SSW 6.9 mph - N/A   Partly Cloudy
3:58 PM 81.9 °F 33.4 °F 17% 29.81 in 10.0 mi South 9.2 mph - 0.00 in   Partly Cloudy
4:10 PM 82.4 °F 33.8 °F 17% 29.83 in 10.0 mi South 9.2 mph - N/A   Light Drizzle
4:13 PM 80.6 °F 33.8 °F 18% 29.83 in 10.0 mi South 9.2 mph - N/A   Scattered Clouds
4:58 PM 80.8 °F 35.4 °F 20% 29.80 in 10.0 mi SSW 6.9 mph - 0.00 in   Mostly Cloudy
5:17 PM 80.6 °F 39.2 °F 23% 29.83 in 10.0 mi SSW 11.5 mph - N/A Rain Light Rain
5:37 PM 75.2 °F 46.4 °F 36% 29.85 in 10.0 mi WSW 12.7 mph - N/A   Light Drizzle
5:39 PM 75.2 °F 48.2 °F 38% 29.85 in 10.0 mi SW 11.5 mph - N/A   Overcast
5:46 PM 75.2 °F 48.2 °F 38% 29.84 in 10.0 mi WSW 11.5 mph - N/A Rain Light Rain
5:58 PM 74.5 °F 50.9 °F 43% 29.83 in 10.0 mi WSW 11.5 mph - 0.00 in Rain Light Rain
6:00 PM 73.4 °F 50.0 °F 44% 29.85 in 10.0 mi SW 10.4 mph - N/A   Mostly Cloudy
6:28 PM 73.4 °F 50.0 °F 44% 29.87 in 10.0 mi WSW 10.4 mph - N/A Rain Light Rain
6:38 PM 73.4 °F 51.8 °F 47% 29.88 in 10.0 mi West 11.5 mph - N/A Rain Light Rain
6:51 PM 71.6 °F 53.6 °F 53% 29.88 in 10.0 mi West 12.7 mph - N/A   Light Drizzle
6:58 PM 71.6 °F 52.2 °F 50% 29.88 in 10.0 mi West 10.4 mph - 0.00 in Rain Light Rain Showers
7:08 PM 69.8 °F 55.4 °F 60% 29.89 in 10.0 mi West 5.8 mph - N/A Rain Light Rain
7:28 PM 69.8 °F 55.4 °F 60% 29.87 in 10.0 mi East 4.6 mph - N/A Rain Light Rain
7:44 PM 68.0 °F 55.4 °F 64% 29.85 in 10.0 mi NNE 9.2 mph - N/A   Mostly Cloudy
7:58 PM 68.4 °F 55.4 °F 63% 29.84 in 10.0 mi NNE 11.5 mph - 0.00 in   Mostly Cloudy
8:58 PM 66.6 °F 54.3 °F 65% 29.83 in 10.0 mi NNE 8.1 mph - N/A   Mostly Cloudy
9:58 PM 64.8 °F 54.1 °F 68% 29.83 in 10.0 mi NNW 5.8 mph - N/A   Partly Cloudy
10:58 PM 62.1 °F 54.7 °F 77% 29.82 in 10.0 mi North 5.8 mph - N/A   Partly Cloudy
11:58 PM 61.5 °F 54.3 °F 77% 29.81 in 10.0 mi NW 8.1 mph - N/A   Partly Cloudy